This demonstration page uses our WeatherBlox Daily Observations layout. Learn more.

Left ArrowRight Arrow

Hourly Observations for July 27, 2022

Temp ( °F °C ) Dew Point ( °F °C ) Humidity (%) Winds ( mph kmh ) Pressure ( in mb ) Visibility ( mi km ) Precip ( " mm )
12:52 am 00:52 Partly Cloudy 71 21.7 70 21.1 96 96 WNW 6 9 29.90 1013 9 14 0.00 0.00
1:52 am 01:52 Mostly Clear 72 22.2 71 21.7 97 97 WSW 6 9 29.91 1013 9 14 0.00 0.00
2:52 am 02:52 Mostly Clear 72 22.2 70 21.1 94 94 SW 3 6 29.91 1013 10 16 0.00 0.00
3:43 am 03:43 Cloudy 72 22.2 71 21.7 97 97 NNW 6 9 29.92 1013 7 11 0.00 0.00
3:48 am 03:48 Cloudy 72 22 72 22 100 100 NNW 8 13 29.92 1013 7 11 0.00 0.00
3:52 am 03:52 Cloudy 71 21.7 70 21.1 96 96 N 9 15 29.93 1014 7 11 0.00 0.00
4:17 am 04:17 Cloudy 71 21.7 69 20.6 94 94 NNW 5 7 29.93 1013 9 14 0.00 0.00
4:40 am 04:40 Cloudy 71 21.7 69 20.6 94 94 Calm 29.93 1013 9 14 0.00 0.00
4:52 am 04:52 Mostly Cloudy 71 21.7 68 20 90 90 Calm 29.93 1014 9 14 0.00 0.00
5:52 am 05:52 Mostly Clear with Patchy Fog 70 21.1 68 20 93 93 Calm 29.94 1014 8 13 0.00 0.00
6:18 am 06:18 Partly Cloudy with Mist and Fog 68 20 68 20 100 100 NNW 6 9 29.94 1014 3 4 0.00 0.00
6:52 am 06:52 Partly Cloudy with Mist and Fog 68 20 68 20 100 100 N 7 11 29.96 1014 3 4 0.00 0.00
7:34 am 07:34 Partly Cloudy with Mist and Fog 69 20.6 68 20 96 96 N 8 13 29.95 1014 4 6 0.00 0.00
7:52 am 07:52 Partly Cloudy 70 21.1 68 20 93 93 N 9 15 29.96 1015 7 11 0.00 0.00
8:52 am 08:52 Partly Cloudy 74 23.3 67 19.4 79 79 N 7 11 29.97 1015 8 13 0.00 0.00
9:52 am 09:52 Partly Cloudy 76 24.4 67 19.4 74 74 Calm 29.98 1015 10 16 0.00 0.00
10:52 am 10:52 Partly Cloudy 79 26.1 64 17.8 60 60 N 3 6 29.98 1015 10 16 0.00 0.00
11:52 am 11:52 Partly Cloudy 82 27.8 63 17.2 53 53 N 6 9 29.97 1015 10 16 0.00 0.00
12:52 pm 12:52 Partly Cloudy 84 28.9 62 16.7 48 48 VRB 5 7 29.96 1015 10 16 0.00 0.00
1:52 pm 13:52 Partly Cloudy 87 30.6 63 17.2 45 45 NW 5 7 29.94 1014 10 16 0.00 0.00
2:52 pm 14:52 Partly Cloudy 88 31.1 61 16.1 40 40 VRB 5 7 29.93 1013 10 16 0.00 0.00
3:52 pm 15:52 Partly Cloudy 88 31.1 57 13.9 35 35 SW 3 6 29.91 1013 10 16 0.00 0.00
4:52 pm 16:52 Partly Cloudy 90 32.2 56 13.3 32 32 W 8 13 29.90 1013 10 16 0.00 0.00
5:52 pm 17:52 Mostly Sunny 90 32.2 55 12.8 31 31 W 7 11 29.89 1012 10 16 0.00 0.00
6:52 pm 18:52 Mostly Sunny 88 31.1 59 15 38 38 WSW 9 15 29.88 1012 10 16 0.00 0.00
7:52 pm 19:52 Mostly Sunny 86 30 59 15 40 40 SW 13 20 29.87 1012 10 16 0.00 0.00
8:52 pm 20:52 Partly Cloudy 84 28.9 60 15.6 44 44 SSW 7 11 29.89 1012 10 16 0.00 0.00
9:52 pm 21:52 Partly Cloudy 81 27.2 64 17.8 57 57 S 8 13 29.91 1013 10 16 0.00 0.00
10:52 pm 22:52 Partly Cloudy 79 26.1 64 17.8 60 60 S 5 7 29.92 1013 10 16 0.00 0.00
11:52 pm 23:52 Mostly Cloudy 77 25 65 18.3 66 66 SSE 5 7 29.91 1013 10 16 0.00 0.00

Powered by AerisWeather